This is the latest recevied weather packets stored in our database for station/object KM5R. If no packets are shown the sender has not sent any weather packets the latest 10 day(s).
| Time | Temp. | Humidity | Pressure | Rain* | Wind** | Luminosity | Snow |
|---|---|---|---|---|---|---|---|
| 1777782021 | 15° C | 63% | 1023.5 hPa | 0 mm | - | 0 W/m² | - |
| 1777781718 | 14.44° C | 64% | 1023.2 hPa | 0 mm | - | 0 W/m² | - |
| 1777781416 | 14.44° C | 66% | 1023.4 hPa | 0 mm | - | 0 W/m² | - |
| 1777781114 | 13.89° C | 66% | 1023.1 hPa | 0 mm | - | 0 W/m² | - |
| 1777780810 | 13.89° C | 65% | 1023.1 hPa | 0 mm | - | 0 W/m² | - |
| 1777780507 | 13.89° C | 68% | 1023.1 hPa | 0 mm | - | 0 W/m² | - |
| 1777780205 | 13.33° C | 70% | 1023.2 hPa | 0 mm | - | 0 W/m² | - |
| 1777779902 | 13.89° C | 69% | 1023.1 hPa | 0 mm | - | 0 W/m² | - |
| 1777779599 | 13.89° C | 68% | 1023.2 hPa | 0 mm | - | 0 W/m² | - |
| 1777779296 | 14.44° C | 66% | 1023.3 hPa | 0 mm | - | 0 W/m² | - |
| 1777778994 | 15° C | 64% | 1022.9 hPa | 0 mm | - | 0 W/m² | - |
| 1777778692 | 14.44° C | 67% | 1023 hPa | 0 mm | - | 0 W/m² | - |
| 1777778390 | 13.33° C | 72% | 1023 hPa | 0 mm | - | 0 W/m² | - |
| 1777778087 | 13.33° C | 75% | 1023 hPa | 0 mm | - | 0 W/m² | - |
| 1777777783 | 13.33° C | 74% | 1022.9 hPa | 0 mm | - | 0 W/m² | - |
| 1777777480 | 13.33° C | 75% | 1022.9 hPa | 0 mm | - | 0 W/m² | - |
| 1777777177 | 13.89° C | 73% | 1022.6 hPa | 0 mm | - | 0 W/m² | - |
| 1777776874 | 14.44° C | 71% | 1022.6 hPa | 0 mm | - | 0 W/m² | - |
| 1777776572 | 15.56° C | 68% | 1022.7 hPa | 0 mm | - | 0 W/m² | - |
| 1777776268 | 16.11° C | 64% | 1022.7 hPa | 0 mm | - | 0 W/m² | - |
| 1777775965 | 16.11° C | 64% | 1022.6 hPa | 0 mm | - | 0 W/m² | - |
| 1777775662 | 13.33° C | 67% | 1022.7 hPa | 0 mm | - | 0 W/m² | - |
| 1777775359 | 13.89° C | 78% | 1022.6 hPa | 0 mm | - | 0 W/m² | - |
| 1777775060 | 14.44° C | 74% | 1022.3 hPa | 0 mm | - | 0 W/m² | - |
| 1777774756 | 14.44° C | 75% | 1022.2 hPa | 0 mm | - | 0 W/m² | - |
* Rain latest hour (hover to see other rain measurements)
** Current wind speed in m/s (hover to see current wind gust speed)